Location: Paris
(48.8566°N, 2.3522°E)
Time: 00:42:51
(UTC+01:00)

ISS - Pass Details

Date: 23 February 2019
Orbit: 406 x 411 km, 51.6° (Epoch: 19 March)

Event Time Altitude Azimuth Distance (km) Brightness Sun altitude
Rises 06:27:04 0° 188° (S) 2,313 -0.1 -13.5°
Reaches altitude 10° 06:30:35 10° 148° (SSE) 1,461 -0.6 -12.9°
Maximum altitude 06:31:21 11° 134° (SE) 1,424 -0.4 -12.8°
Drops below altitude 10° 06:32:07 10° 120° (ESE) 1,463 0.0 -12.7°
Sets 06:35:40 0° 80° (E) 2,331 1.9 -12.1°
